Погода в Нью-Йорке

США     40°42′57″N   74°00′10″W
темп.,
°C
ветер,
м/с
пор.,
м/с
влажн.,
%
обл.,
%
осадки,
мм/ч
давл.,
гПа
погр.,
м
17 сентября, пт
пт1723:00+23всв4676100 0.0 1024632
02:00+22всв4782100 0.0 1023544
05:00+21всв5883100 0.0 1023523
08:00+21св5784100 0.0 1024599
11:00+23всв577792 0.0 1024722
14:00+26в456084 0.1 10221184
17:00+26в355991 0.2 1020957
20:00+24всв25680 0.3 1020431
18 сентября, сб
сб1823:00+23св36800 0.0 1019505
02:00+21ссв36869 0.0 1018412
05:00+20ссв36840 0.0 1018321
08:00+21с34790 0.0 1018287
11:00+26ссз23550 0.0 1018979
14:00+30ссз244326 0.0 10161724
17:00+29сз554847 0.0 10141193
20:00+27зсз47540 0.0 1016675
19 сентября, вс
вс1923:00+25ссз49600 0.0 1017434
02:00+23с36684 0.0 1018385
05:00+21с36744 0.0 1019359
08:00+20с24694 0.0 1020349
11:00+25ссв34334 0.0 10221036
14:00+27ссв44230 0.0 10211265
17:00+27ссв43230 0.0 10201310
20:00+24св35355 0.0 1022368
20 сентября, пн
пн2023:00+22св13414 0.0 1024277
02:00+20ссв23450 0.0 1025155
05:00+19ссв23490 0.0 1025163
08:00+19ссв22515 0.0 1026226
11:00+24ююв2349100 0.0 10271085
14:00+24ююв5448100 0.0 10271256
17:00+23ююв445198 0.0 10261061
20:00+21ююв566132 0.0 1027772
21 сентября, вт
вт2123:00+21ююв4664100 0.0 1027768
02:00+20ю3565100 0.0 1027752
05:00+20ююв3566100 0.0 1026555
08:00+20ююв3464100 0.0 1027888
11:00+23ююв4554100 0.0 10271172
14:00+23ююв5549100 0.0 10251127
17:00+22ююв5655100 0.0 1024934
20:00+21ююв5770100 0.0 1023854